Location: *
(43.4667°N, 11.6833°E)
Time: 04:33:13
(UTC+00:00)

Cosmos 2263 Rocket - Pass Details

Date: 19 July 2019
Orbit: 822 x 850 km, 71.0° (Epoch: 20 August)

Event Time Altitude Azimuth Distance (km) Brightness Sun altitude
Rises 19:54:02 0° 331° (NNW) 3,423 6.9 -10.3°
Reaches altitude 10° 19:56:31 10° 328° (NNW) 2,484 6.0 -10.7°
Maximum altitude 20:02:07 58° 251° (WSW) 984 2.7 -11.4°
Drops below altitude 10° 20:07:39 10° 173° (S) 2,465 4.2 -12.1°
Enters shadow 20:07:54 - 172° (S) 2,556 4.2 -12.2°
